This demonstration page uses our WeatherBlox Daily Observations layout. Learn more.

Left ArrowRight Arrow

Hourly Observations for April 8, 2015

Temp ( °F °C ) Dew Point ( °F °C ) Humidity (%) Winds ( mph kmh ) Pressure ( in mb ) Visibility ( mi km ) Precip ( " mm )
12:53 am 00:53 Clear 33 0.6 31 -0.6 92 92 E 7 11 29.93 1014 10 16 N/A
1:53 am 01:53 Clear 33 0.6 31 -0.6 92 92 ENE 7 11 29.91 1013 10 16 N/A
2:53 am 02:53 Clear 32 undefined 30 -1.1 92 92 ENE 10 17 29.91 1013 10 16 N/A
3:53 am 03:53 Clear 31 -0.6 29 -1.7 92 92 ENE 13 20 29.90 1013 10 16 N/A
4:53 am 04:53 Mostly Clear 31 -0.6 28 -2.2 89 89 ENE 8 13 29.90 1013 10 16 N/A
5:53 am 05:53 Mostly Cloudy 31 -0.6 29 -1.7 92 92 E 12 19 29.91 1013 10 16 N/A
6:53 am 06:53 Sunny 30 -1.1 28 -2.2 92 92 ENE 13 20 29.93 1014 10 16 N/A
7:53 am 07:53 Partly Cloudy 32 undefined 29 -1.7 88 88 E 9 15 29.94 1014 10 16 N/A
8:53 am 08:53 Mostly Cloudy 37 2.8 32 undefined 82 82 ENE 13 20 29.94 1014 10 16 N/A
9:53 am 09:53 Partly Cloudy 43 6.1 34 1.1 71 71 NE 17 28 29.93 1014 10 16 N/A
10:53 am 10:53 Partly Cloudy 48 8.9 35 1.7 61 61 ENE 16 26 29.93 1014 10 16 N/A
11:53 am 11:53 Cloudy 53 11.7 33 0.6 47 47 ENE 13 20 29.94 1014 10 16 N/A
12:53 pm 12:53 Partly Cloudy 55 12.8 30 -1.1 38 38 ENE 15 24 29.94 1014 10 16 N/A
1:53 pm 13:53 Mostly Cloudy 54 12.2 25 -3.9 33 33 NE 15 24 29.95 1014 10 16 N/A
2:53 pm 14:53 Mostly Cloudy 55 12.8 31 -0.6 40 40 NNE 20 31 29.95 1014 10 16 N/A
3:04 pm 15:04 Cloudy 57 14 30 -1 36 36 NNE 16 26 29.88 1012 10 16 N/A
3:53 pm 15:53 Cloudy 56 13.3 30 -1.1 37 37 NE 16 26 29.96 1015 10 16 N/A
4:53 pm 16:53 Partly Cloudy 56 13.3 31 -0.6 39 39 NE 12 19 29.97 1015 10 16 N/A
5:53 pm 17:53 Sunny 55 12.8 29 -1.7 37 37 ENE 8 13 29.99 1016 10 16 N/A
6:53 pm 18:53 Partly Cloudy 54 12.2 28 -2.2 37 37 ESE 5 7 30.00 1016 10 16 N/A
7:53 pm 19:53 Sunny 51 10.6 28 -2.2 41 41 N N/A 30.01 1016 10 16 N/A
8:53 pm 20:53 Cloudy 42 5.6 29 -1.7 60 60 S 5 7 30.05 1018 10 16 N/A
9:53 pm 21:53 Cloudy 44 6.7 31 -0.6 60 60 E 6 9 30.04 1017 10 16 N/A
10:53 pm 22:53 Mostly Cloudy 41 5 29 -1.7 62 62 N N/A 30.04 1017 10 16 N/A
11:53 pm 23:53 Mostly Cloudy 33 0.6 28 -2.2 82 82 SSW 6 9 30.06 1018 10 16 N/A

Powered by AerisWeather